Mingoville, Pennsylvania
Current Conditions -  °F | °C
As of 5:53 PM on Wednesday 22 Oct 2014 (Local Time) from KUNV Reporting Station
Overcast Overcast  
Wind Chill: 43°   Ceiling: 2100
Heat Index: 48°   Visibility: 10mi
Dew Point: 41°   Wind: 14mph
Humidity: 76%   Direction: 360°N
Pressure: 30.06"   Gusts: NA
Location:  40.93°N, 77.65°W
Report Text: KUNV 222153Z 36012KT 10SM OVC021 09/05 A3006
Loading
Personal Weather Stations






























Interactive Weather Map
Tropical Storm Tracking
New forecast layout! Learn more

10-Day Weather Forecast

Advertisements
Track Severe Weather on mobile